Vorticity
nan nan nan nan nan nan nan nan nan nan nan nan nan nan nan nan nan nan nan nan nan nan nan nan nan nan nan nan nan nan nan nan nan nan nan nan nan nan nan nan nan nan nan nan nan nan nan nan nan
nan 1 -0 5 9 6 10 12 3 1 3 5 8 13 4 0 11 14 16 7 6 8 8 8 7 4 5 4 5 5 5 5 4 4 4 3 4 3 3 3 3 3 3 3 4 4 5 5 nan
nan 5 2 8 1 -1 8 14 6 6 4 5 7 2 10 15 4 8 14 12 7 6 6 12 9 4 5 5 5 5 5 5 4 3 4 4 3 4 4 4 4 3 3 4 4 5 6 5 nan
nan 2 3 4 7 0 4 4 10 5 6 2 5 5 8 9 5 9 12 11 5 6 5 14 9 4 4 5 5 5 5 5 5 4 4 4 3 5 5 4 4 5 5 4 5 5 5 6 nan
nan 3 8 6 3 2 7 1 0 5 6 4 10 8 5 5 8 8 10 9 6 7 7 10 8 5 4 6 5 5 5 5 5 5 5 5 5 5 5 5 6 5 5 7 8 8 6 6 nan
nan 5 5 6 6 7 3 7 3 4 8 8 6 7 6 3 3 9 10 9 7 7 8 6 9 6 5 5 5 5 5 5 5 5 5 5 5 5 5 7 7 6 6 7 9 9 7 8 nan
nan 4 -0 1 5 9 7 8 5 8 7 17 5 5 6 6 3 3 6 9 10 8 7 4 7 7 5 6 6 6 6 6 6 5 5 5 4 4 5 9 9 6 7 7 7 7 8 8 nan
nan 3 7 7 4 3 1 11 7 7 5 5 4 3 4 0 -2 3 6 6 9 8 6 7 5 8 7 6 7 7 5 5 5 5 5 5 5 6 8 8 8 10 7 5 6 6 7 7 nan
nan 4 8 5 3 6 6 4 3 1 5 -3 2 5 5 -2 3 5 5 5 5 11 9 8 5 6 9 7 6 6 6 5 5 5 4 5 5 11 15 10 11 11 4 4 5 6 6 8 nan
nan 4 3 2 3 0 6 5 3 1 1 2 3 6 12 5 -0 2 4 5 9 9 8 7 9 8 6 7 8 9 6 6 7 5 8 7 5 5 6 13 17 8 5 7 9 9 8 7 nan
nan -1 4 3 -0 1 5 -0 0 2 3 4 5 5 5 7 6 8 7 4 5 6 13 12 9 9 8 6 6 6 8 9 10 9 7 4 7 10 9 7 6 11 7 10 14 9 10 11 nan
nan 3 1 0 -2 2 9 7 3 2 3 3 8 7 2 6 5 6 7 8 8 14 11 12 11 7 6 6 8 5 7 7 8 10 6 5 8 9 5 5 9 9 8 7 5 9 9 8 nan
nan 2 1 4 3 3 5 3 6 9 3 1 7 7 7 6 3 6 9 10 12 12 12 16 14 7 7 7 5 8 8 8 7 7 7 6 6 7 6 7 8 5 8 9 6 6 9 9 nan
nan 3 4 3 5 6 8 7 7 5 5 5 3 6 6 5 5 6 8 12 13 14 15 15 13 9 7 4 4 8 9 7 7 7 9 6 6 6 7 7 5 6 9 8 9 6 7 9 nan
nan 8 9 8 7 9 11 8 7 6 7 7 7 10 11 3 3 7 10 12 12 11 12 14 11 10 7 6 7 6 6 8 7 7 8 8 7 4 5 7 8 8 8 8 7 8 6 7 nan
nan 9 9 12 9 10 6 3 9 8 11 9 6 9 9 5 4 9 13 12 13 10 12 13 13 8 6 6 8 7 8 8 6 8 9 8 5 5 8 8 6 7 10 10 10 10 7 8 nan
nan 12 7 3 10 11 5 2 4 9 10 7 5 7 5 3 6 9 11 14 15 11 12 15 15 9 9 7 7 7 9 7 7 7 8 8 8 8 6 6 8 8 9 9 9 7 9 8 nan
nan 6 4 5 11 10 3 7 8 8 7 7 10 7 3 5 5 7 14 17 10 14 18 16 10 13 10 7 8 9 6 7 7 7 8 8 8 7 10 8 7 9 9 8 8 8 7 9 nan
nan 5 7 9 10 6 4 11 8 7 7 10 7 5 3 4 8 12 18 14 12 16 15 11 10 11 7 9 7 8 5 7 8 8 9 8 7 10 10 8 8 9 10 9 7 8 8 8 nan
nan 4 7 6 10 11 11 6 5 7 5 7 7 5 5 6 10 10 19 12 14 13 12 12 12 8 5 6 8 9 11 8 8 8 7 10 10 10 7 7 10 9 9 10 9 8 7 9 nan
nan 9 6 5 8 11 9 11 11 7 7 8 6 7 10 12 10 12 13 10 11 12 12 12 12 7 7 6 7 7 6 9 13 11 10 9 8 9 9 8 9 10 9 12 9 10 7 9 nan
nan 9 5 7 9 10 7 13 14 10 11 10 12 13 12 8 10 19 8 10 11 12 12 11 10 7 9 6 7 7 3 7 5 7 10 11 10 7 10 11 10 8 9 9 8 9 11 9 nan
nan 7 9 7 6 10 8 5 8 10 11 14 12 8 10 10 17 20 8 11 12 11 11 10 9 8 7 7 7 5 10 9 5 7 9 7 9 11 10 10 10 8 8 9 10 10 10 8 nan
nan 9 10 11 9 9 12 4 5 7 10 11 9 8 14 17 18 11 13 11 11 11 10 9 7 8 6 8 7 7 9 5 9 7 7 12 12 13 11 11 11 10 9 10 11 11 9 8 nan
nan 8 11 9 11 6 10 5 5 8 12 11 12 15 14 23 18 10 10 10 9 9 7 8 8 7 7 7 7 10 6 7 6 8 9 12 12 12 12 10 11 11 11 11 12 10 9 8 nan
nan 3 5 4 0 14 11 5 7 14 14 15 14 10 12 17 10 11 10 10 10 8 7 7 7 7 7 7 7 7 8 8 7 10 9 11 11 12 12 9 9 11 12 10 8 8 10 10 nan
nan 7 -1 5 3 0 12 18 14 14 16 15 15 10 14 10 10 11 11 9 8 8 7 8 7 7 7 6 7 8 6 5 8 12 12 11 12 10 9 11 10 8 9 10 8 7 9 11 nan
nan 12 8 9 6 9 7 7 13 18 17 11 13 18 16 9 10 10 9 9 8 8 8 8 7 7 8 7 7 8 9 8 9 10 12 11 10 9 10 10 10 12 9 8 8 9 10 10 nan
nan 10 7 3 10 8 6 15 15 8 8 19 24 18 14 9 10 10 9 8 8 7 8 7 9 8 8 7 7 8 9 8 10 10 13 10 11 10 9 8 10 11 11 9 8 11 10 8 nan
nan nan nan nan nan nan nan nan nan nan nan nan nan nan nan nan nan nan nan nan nan nan nan nan nan nan nan nan nan nan nan nan nan nan nan nan nan nan nan nan nan nan nan nan nan nan nan nan nan
CAPE
0 0 0 0 0 0 0 0 52 26 8 0 0 0 4 0 0 7 19 43 0 0 624 274 825 746 648 530 410 326 216 98 0 0 0 0 0 0 0 0 0 0 0 0 0 0 0 0 0
0 0 0 0 0 0 5 18 54 74 33 0 0 0 5 2 0 0 0 45 0 12 747 105 960 868 868 825 701 570 451 183 26 0 0 0 0 0 0 0 0 0 0 0 0 0 0 5 7
0 0 0 0 3 29 55 90 65 32 0 0 0 0 0 0 0 0 59 83 13 30 566 282 1107 1009 1047 1051 948 836 733 492 133 63 51 35 28 30 27 29 45 79 58 15 2 5 6 15 80
0 0 0 28 70 88 25 109 109 15 45 0 0 0 0 0 0 0 20 60 31 20 205 1139 1191 1196 1217 1339 1259 1091 1034 754 452 206 167 139 113 217 233 86 114 180 264 153 92 83 10 43 252
0 0 0 0 0 0 22 8 62 24 29 14 2 0 8 1 0 0 16 50 35 41 77 797 1424 1411 1458 1541 1499 1436 1268 1115 973 663 403 279 388 591 534 468 558 579 447 385 366 336 342 412 335
0 0 0 0 1 8 30 9 5 9 7 12 0 0 0 0 0 0 0 61 40 31 70 254 1591 1526 1529 1599 1636 1568 1497 1420 1325 1204 1001 1023 1046 1038 956 929 926 706 463 468 319 345 322 308 232
0 0 0 0 2 3 24 12 5 16 32 29 7 0 2 53 9 3 0 33 96 34 104 127 1659 1500 1642 1704 1641 1624 1599 1577 1537 1484 1436 1510 1303 1375 1194 1206 885 544 364 198 156 192 218 255 226
0 0 0 1 0 0 5 2 2 13 29 31 8 0 19 88 18 32 28 37 62 135 101 161 565 1507 1195 847 1835 1852 1788 1737 1765 1663 1598 1690 1469 1357 1372 1267 784 426 182 149 96 72 114 166 448
0 0 0 0 0 0 5 11 20 17 0 0 0 0 3 6 1 13 45 52 74 89 150 206 176 574 930 657 1052 1859 1602 1606 1731 1439 1503 1656 648 537 960 1048 981 506 321 172 111 64 34 46 105
0 19 0 0 2 2 27 16 15 15 14 0 0 2 16 24 26 15 6 22 47 135 147 193 296 661 777 540 1169 1615 925 850 840 835 792 1313 1357 780 575 793 360 413 420 297 175 107 39 48 0
3 0 13 21 20 21 17 44 29 16 32 23 13 1 18 11 6 0 0 0 12 41 137 170 1457 1637 1169 737 726 1426 1302 993 1249 1266 1921 1811 923 546 635 777 828 638 678 614 438 226 304 135 16
0 0 12 18 52 39 35 31 53 29 25 16 0 0 0 0 0 0 0 0 4 1 184 121 555 1938 2205 1115 709 1023 1259 1293 1019 1066 1665 1523 927 1107 1006 802 771 1392 655 809 993 364 581 546 100
0 0 0 1 11 29 40 13 21 13 2 4 0 0 0 0 0 0 0 0 0 0 2 67 881 2239 2507 2873 1214 1350 1559 910 988 763 759 894 780 1267 932 995 811 879 802 516 340 558 535 465 256
0 2 1 0 3 10 24 0 0 3 0 0 0 0 0 0 0 0 0 0 0 18 34 90 1065 2549 2064 2384 2969 2241 2185 970 606 533 559 879 993 1389 941 982 1153 992 1115 654 1042 823 329 196 110
1 26 31 15 17 20 0 0 0 0 0 0 0 0 0 0 0 0 0 0 0 43 149 346 1674 2389 2725 2565 2626 2082 1126 788 533 602 630 701 1143 1236 1158 851 968 856 1617 942 1055 641 828 415 150
0 15 8 0 2 5 35 0 0 0 5 0 0 0 0 0 0 0 0 0 135 523 498 494 319 1163 2211 2675 2328 1540 741 746 491 511 575 1020 1243 1247 1153 1157 950 832 1196 1128 962 734 594 462 716
0 0 0 0 12 28 55 0 1 0 0 0 0 0 0 0 0 0 0 0 134 478 362 565 970 882 1741 2482 1742 1503 1679 767 581 584 618 851 1121 1085 1537 1402 1060 1271 1230 917 1046 757 1164 652 630
0 0 0 0 0 22 31 8 18 1 0 0 22 2 0 0 0 0 0 0 76 152 444 775 778 1567 2190 1739 1461 744 697 725 510 582 720 892 1048 1162 1198 1147 1171 1355 1205 986 876 844 698 503 541
0 0 0 0 1 16 0 18 68 4 0 0 2 3 0 0 0 0 0 129 59 241 573 673 683 1892 1638 1016 714 685 590 709 515 689 780 1003 979 1123 1312 1221 1224 1261 1092 786 971 990 690 975 828
0 0 0 0 1 26 34 12 31 7 0 0 1 2 0 0 0 0 182 201 158 411 522 586 662 1341 1344 955 1178 645 632 439 720 695 911 962 908 1352 1084 1094 1201 1027 1115 914 550 965 775 922 1055
0 0 0 0 0 5 20 21 0 0 2 0 0 0 2 0 0 0 293 352 394 461 599 638 850 1036 1426 1427 1023 749 825 799 656 577 794 976 890 899 1028 977 985 1026 1027 743 1042 999 586 916 864
0 0 0 0 0 4 12 6 0 0 0 0 0 17 10 0 0 0 535 515 539 562 618 797 975 970 795 931 1120 1243 577 387 532 567 333 812 639 720 677 906 829 917 695 993 738 1139 861 939 1015
0 0 0 0 0 0 0 0 0 0 0 0 10 18 2 0 0 60 463 565 568 556 647 896 949 808 898 794 827 765 563 219 332 306 632 981 1038 985 694 705 656 813 1308 759 938 795 1059 949 1158
0 0 0 5 0 0 0 1 0 0 0 0 6 31 5 0 1 197 463 580 534 563 731 813 859 820 827 664 750 838 537 492 485 618 816 1149 1457 1308 870 586 736 804 890 902 727 680 896 1126 1320
0 0 0 1 0 0 0 4 0 0 0 0 0 2 1 0 237 472 579 504 575 630 668 715 709 875 790 777 622 576 649 671 677 803 1139 1052 1311 1229 1148 897 807 1038 964 706 813 1005 846 991 1420
0 0 0 0 0 0 0 0 0 0 0 0 0 0 0 207 394 534 539 590 524 609 598 546 792 751 719 593 521 527 559 548 847 814 1176 1112 1032 1031 738 733 714 842 652 539 819 1445 1173 1139 1344
0 1 0 0 0 0 2 44 10 0 0 0 0 0 0 320 562 607 596 565 572 579 575 713 676 637 537 447 486 465 505 692 761 804 1085 1032 906 776 610 621 769 679 703 794 1064 1265 979 908 838
0 0 0 0 0 1 31 52 73 0 0 0 0 0 0 365 581 592 606 584 546 563 602 675 572 521 384 376 390 508 1133 622 446 914 875 957 805 408 526 677 762 593 640 800 1021 1101 950 999 436
0 4 0 0 0 3 39 74 28 0 0 1 0 0 0 494 574 598 581 562 555 575 579 561 323 315 356 352 310 580 919 488 512 692 637 789 735 378 453 584 636 573 596 686 1025 896 722 709 875
0 1 0 0 0 8 39 59 0 0 0 21 70 45 78 586 571 599 538 536 576 577 544 252 287 272 290 244 208 315 852 239 609 462 740 720 690 390 253 763 261 291 505 709 693 615 630 623 555